Regional Weather Roundup
Issued by NWS

Home | Current Version | Previous Version | Graphics & Text | Print | Product List | Glossary On
Versions: 1 2 3 4 5 6 7 8 9 10 11 12 13 14 15 16 17 18 19 20 21 22 23 24 25 26 27 28 29 30 31 32 33 34 35 36 37 38 39 40 41 42 43 44 45 46 47 48 49 50
253
ASUS44 KMEG 221700
RWRTN
TENNESSEE HOURLY STATE WEATHER ROUNDUP
NATIONAL WEATHER SERVICE MEMPHIS TN
1100 AM CST WED FEB 22 2017

TNZ002-004-019-021-049-052-054-088>092-221800-
WEST TENNESSEE

CITY           SKY/WX    TMP DP  RH WIND       PRES   REMARKS
MEMPHIS INTL   MOSUNNY   69  57  65 E8        29.87F
NWS MEMPHIS      N/A     67 N/A N/A MISG        N/A
JACKSON        PTSUNNY   67  58  72 VRB6      29.89F
UNION CITY     MOSUNNY   66  32  28 CALM      29.87F
PARIS          SUNNY     66  54  63 SE3       29.89F
$$

TNZ008-025-027-028-033-062-065-066-221800-
NORTH MIDDLE TENNESSEE

CITY           SKY/WX    TMP DP  RH WIND       PRES   REMARKS
NASHVILLE      CLOUDY    64  58  80 SE6       29.91F
CLARKSVILLE    MOSUNNY   65  56  72 CALM      29.90F
SMYRNA         CLOUDY    63  59  87 E3        29.92F
CROSSVILLE     CLOUDY    56  53  90 E3        29.96R
$$

TNZ061-075-076-078-094-096-097-221800-
SOUTH MIDDLE TENNESSEE

CITY           SKY/WX    TMP DP  RH WIND       PRES   REMARKS
TULLAHOMA      CLOUDY    63  57  82 SE5       29.92F
WINCHESTER     CLOUDY    63  55  77 E6        29.92R
MCMINNVILLE    MOSUNNY   63  61  94 E6        29.92F
COLUMBIA       CLOUDY   N/A N/A N/A CALM      29.89F
SHELBYVILLE    PTSUNNY   64  59  82 E3        29.91F
$$

TNZ017-018-042-046-047-221800-
NORTHEAST TENNESSEE

CITY           SKY/WX    TMP DP  RH WIND       PRES   REMARKS
TRI CITIES     LGT RAIN  54  52  93 NE6       29.98F FOG
$$

TNZ012-013-036-069-073-074-221800-
CENTRAL EAST TENNESSEE

CITY           SKY/WX    TMP DP  RH WIND       PRES   REMARKS
KNOXVILLE      LGT RAIN  58  55  90 NE6       29.94F
OAK RIDGE      LGT RAIN  58  55  90 CALM      29.97F
GATLINBURG     MOSUNNY   54  54 100 CALM      29.95F
$$

TNZ083-085-099-221800-
SOUTHEAST TENNESSEE

CITY           SKY/WX    TMP DP  RH WIND       PRES   REMARKS
CHATTANOOGA    CLOUDY    62  56  80 NE3       29.92F
$$

SKY/WX REPORTED AS FAIR MEANS FEW OR NO CLOUDS BELOW
12 THOUSAND FEET.





USA.gov is the U.S. government's official web portal to all federal, state and local government web resources and services.